[[{"header":{"parameterUnit":"m.s-1","parameterCategory":1,"la1":30.2992,"la2":30.254,"lo1":-89.0895,"lo2":-89.0443,"dy":0.0025,"dx":0.0025,"nx":19,"ny":19,"refTime":"2026-04-19T03:00:00:Z","depth":0,"parameterNumber":2,"parameterNumberName":"U-component_of_WINDS"},"data":[0,0,0,1.0762,1.0767,1.1023,1.1024,1.1326,1.1329,0,0,0,0,0,0,0,0,0,0,0,1.067,1.0671,1.0761,1.0767,1.1023,1.1024,1.1326,1.1329,0,0,0,0,0,0,0,0,0,0,0,1.0669,1.0671,1.0673,1.0768,1.1023,1.1024,1.1325,1.1141,0,0,0,0,0,0,0,0,0,0,1.0897,1.0797,1.0671,1.0673,1.077,1.1022,1.1024,1.1133,1.1153,1.1199,0,1.1235,0,1.1286,1.1347,1.1348,0,0,0,1.078,1.078,1.0863,1.0673,1.0772,1.1022,1.0911,1.1144,1.1167,1.1225,1.124,1.1252,1.1291,1.1349,1.135,1.1572,1.1572,0,0,1.0766,1.0708,1.0847,1.0877,1.0835,1.0903,1.0919,1.1158,1.1171,1.1241,1.1259,1.1296,1.1351,1.1353,1.1571,1.1572,0,0,0,1.0717,1.0697,1.0775,1.0864,1.0911,1.091,1.0928,1.116,1.119,1.1263,1.13,1.1352,1.1356,1.1571,1.1572,1.1536,0,0,0,1.0709,1.0669,1.0769,1.0736,1.0906,1.1039,1.0924,1.1174,1.1203,1.1298,1.1352,1.1358,1.1571,1.1571,1.1536,1.1529,0,0,0,1.0659,1.0663,1.0694,1.0732,1.084,1.1036,1.1081,1.1181,1.1225,1.1348,1.1359,1.157,1.1571,1.1536,1.1529,1.1569,0,0,0,1.0589,1.0661,1.0693,1.0788,1.0837,1.1012,1.108,1.1214,1.1315,1.1354,1.1571,1.1572,1.1536,1.153,1.1569,1.1591,1.1596,0,0,1.0648,1.0666,1.0727,1.0762,1.0916,1.0978,1.1128,1.1277,1.1343,1.1492,1.1498,1.1536,1.1529,1.1569,1.1641,1.1643,0,0,0,1.0725,1.0768,1.0821,1.0914,1.1028,1.1126,1.1258,1.1313,1.1442,1.1407,1.1564,1.1562,1.1587,1.1601,1.1603,1.1628,1.1576,1.1575,1.1575,1.0725,1.0803,1.0908,1.1016,1.1106,1.124,1.132,1.1417,1.1472,1.1507,1.1552,1.1585,1.1599,1.1601,1.1627,1.1571,1.1571,1.1571,1.1571,1.0817,1.0889,1.0958,1.1083,1.1166,1.1273,1.1404,1.1439,1.1551,1.1559,1.1586,1.1587,1.1602,1.1628,1.1569,1.1569,1.157,1.157,1.157,1.0825,1.0873,1.0937,1.1078,1.1178,1.1287,1.139,1.1462,1.1531,1.1557,1.1611,1.1612,1.1621,1.1578,1.1578,1.1578,1.1578,1.1578,1.1579,1.0807,1.0881,1.0958,1.1084,1.1152,1.1251,1.1385,1.1455,1.155,1.1595,1.1596,1.1645,1.1589,1.1572,1.1581,1.158,1.158,1.158,1.158,1.087,1.0867,1.0986,1.1054,1.1206,1.13,1.139,1.1525,1.1593,1.1641,1.1686,1.1632,1.1657,1.1656,1.1643,1.1669,1.1669,1.1669,1.1669,1.0875,1.0894,1.1032,1.1135,1.1245,1.1338,1.147,1.1574,1.1682,1.1729,1.1736,1.1725,1.172,1.1748,1.1745,1.1734,1.1783,1.1783,1.1783,1.0918,1.095,1.1048,1.1152,1.1276,1.1381,1.1507,1.1624,1.1746,1.1789,1.1767,1.1762,1.1746,1.1736,1.1778,1.1772,1.1753,0,0]},{"header":{"parameterUnit":"m.s-1","parameterCategory":1,"la1":30.2992,"la2":30.254,"lo1":-89.0895,"lo2":-89.0443,"dy":0.0025,"dx":0.0025,"nx":19,"ny":19,"refTime":"2026-04-19T03:00:00:Z","depth":0,"parameterNumber":3,"parameterNumberName":"V-component_of_WINDS"},"data":[0,0,0,4.5505,4.5506,4.5528,4.5528,4.5575,4.5576,0,0,0,0,0,0,0,0,0,0,0,4.551,4.5511,4.5505,4.5506,4.5528,4.5528,4.5575,4.5576,0,0,0,0,0,0,0,0,0,0,0,4.551,4.5511,4.5512,4.5506,4.5528,4.5528,4.5575,4.5551,0,0,0,0,0,0,0,0,0,0,4.5527,4.5543,4.551,4.5512,4.5506,4.5528,4.5528,4.555,4.5553,4.5573,0,4.5595,0,4.5586,4.558,4.558,0,0,0,4.5497,4.554,4.5536,4.5512,4.5507,4.5528,4.5516,4.5551,4.5555,4.5577,4.5595,4.5596,4.5587,4.5581,4.5581,4.573,4.5731,0,0,4.5496,4.552,4.5534,4.5539,4.5537,4.5515,4.5516,4.5553,4.5574,4.5595,4.5597,4.5588,4.5581,4.5582,4.5729,4.573,0,0,0,4.5498,4.552,4.5514,4.5537,4.554,4.5516,4.5517,4.5572,4.5568,4.5598,4.5588,4.5581,4.5582,4.5728,4.5729,4.5808,0,0,0,4.5497,4.5521,4.5514,4.5529,4.554,4.5556,4.5536,4.5566,4.5569,4.5588,4.5581,4.5583,4.5726,4.5729,4.5804,4.5841,0,0,0,4.5505,4.5522,4.5529,4.553,4.5541,4.5555,4.5553,4.5566,4.5564,4.558,4.5583,4.5726,4.5728,4.5799,4.5834,4.5888,0,0,0,4.5519,4.5598,4.5531,4.5615,4.5541,4.5604,4.5553,4.5599,4.5622,4.5582,4.5727,4.5729,4.5798,4.583,4.5884,4.5938,4.5963,0,0,4.5631,4.5612,4.566,4.56,4.5682,4.5599,4.5692,4.569,4.5669,4.5711,4.5714,4.5805,4.5834,4.5887,4.6095,4.6115,0,0,0,4.5703,4.5738,4.5754,4.5778,4.578,4.5784,4.5765,4.5765,4.58,4.5696,4.5839,4.5855,4.5885,4.591,4.5927,4.5952,4.5742,4.5742,4.5741,4.5895,4.5866,4.5943,4.5917,4.5941,4.5922,4.5939,4.5935,4.5897,4.5932,4.5944,4.6073,4.6103,4.6116,4.6142,4.597,4.597,4.5971,4.5971,4.6057,4.6102,4.6051,4.6108,4.6077,4.6124,4.611,4.6082,4.6121,4.6061,4.6086,4.6024,4.6139,4.616,4.5976,4.5975,4.5975,4.5974,4.5974,4.6179,4.6196,4.6195,4.6229,4.6258,4.6228,4.6269,4.6239,4.621,4.6235,4.6245,4.6244,4.6239,4.6242,4.6243,4.6243,4.6244,4.6244,4.6244,4.6307,4.6303,4.6342,4.6352,4.6365,4.6378,4.6361,4.6373,4.6377,4.6352,4.6352,4.6311,4.6156,4.6118,4.6251,4.625,4.6249,4.6248,4.6248,4.6481,4.6437,4.6497,4.651,4.652,4.6552,4.6514,4.654,4.6545,4.6567,4.6521,4.6411,4.6389,4.6375,4.6343,4.6527,4.6527,4.6527,4.6527,4.6584,4.6571,4.6626,4.6649,4.6668,4.664,4.671,4.6699,4.668,4.6682,4.6651,4.6606,4.6593,4.6578,4.656,4.653,4.6757,4.6757,4.6757,4.669,4.6677,4.6742,4.6725,4.6731,4.6738,4.6803,4.6831,4.6801,4.6766,4.6682,4.6673,4.66,4.6578,4.6541,4.6513,4.6457,0,0]}]]